Flag for Australia Weather past 2 weeks in The Settlement, Christmas Island, Australia

Now
77 °F

Mostly cloudy.


Feels Like: 79 °F
Forecast: 73 / 78 °F
Wind: 12 mph from Southeast

Location: Christmas Island Aerodrome

Current Time: Oct 2, 2014 at 7:26:50 AM

Latest Report: Oct 2, 2014 at 7:00 AM


Visibility: N/A

Pressure: 29.98 "Hg

Humidity: 74%

Dew point: 68 °F

Location of The SettlementLocation

Historic Weather in The Settlement — Graph

°F

The Settlement temperature yesterday

Maximum temperature yesterday: 79 °F (at 11:00 AM)
Minimum temperature yesterday: 73 °F (at 2:00 AM)
Average temperature yesterday: 76 °F

Past Weeks' High & Low Weather Summary

 TemperatureHumidityPressure
High81 °F (Sep 17, 11:00 AM)94% (Sep 19, 2:00 AM)30.07 "Hg (Sep 19, 2:00 AM)
Low72 °F (Sep 26, 10:00 PM)58% (Sep 27, 11:00 AM)29.89 "Hg (Sep 17, 3:00 PM)
Average75 °F79%29.98 "Hg
* Reported Sep 17 6:00 AM — Oct 2 6:00 AM, The Settlement, Weather by CustomWeather, © 2014

Note: Actual official high and low records may vary slightly from our data, if they occured in-between our weather recording intervals... More about our weather records

Advertising

The Settlement weather history for previous 24 hours

 ConditionsComfort  
Time TempWeatherWind HumidityBarometerVisibility
6:00 AM
Oct 2
73 °FBroken clouds.13 mph83%29.98 "HgN/A
5:00 AM73 °FMostly cloudy.14 mph83%29.95 "HgN/A
4:00 AM73 °FPartly cloudy.10 mph83%29.95 "HgN/A
3:30 AM73 °FPassing clouds.12 mph89%29.95 "HgN/A
3:00 AM73 °FPartly cloudy.13 mph83%29.95 "HgN/A
2:00 AM73 °FPassing clouds.13 mph83%29.92 "HgN/A
1:00 AM73 °FPassing clouds.12 mph89%29.95 "HgN/A
12:00 AM73 °FMostly cloudy.10 mph89%29.95 "HgN/A
11:00 PM
Oct 1
73 °FPartly cloudy.9 mph89%29.98 "HgN/A
10:00 PM75 °FMostly cloudy.10 mph83%29.98 "HgN/A
9:00 PM75 °FPartly cloudy.10 mph83%29.98 "HgN/A
8:00 PM75 °FPassing clouds.10 mph83%29.98 "HgN/A
7:00 PM75 °FMostly cloudy.10 mph83%29.95 "HgN/A
6:00 PM75 °FOvercast.12 mph83%29.95 "HgN/A
5:00 PM77 °FPartly sunny.9 mph79%29.92 "HgN/A
4:00 PM77 °FMostly cloudy.12 mph79%29.92 "HgN/A
3:00 PM77 °FPartly sunny.12 mph79%29.92 "HgN/A
2:00 PM79 °FPartly sunny.12 mph74%29.92 "HgN/A
1:00 PM79 °FMostly cloudy.14 mph74%29.92 "HgN/A
12:00 PM79 °FPartly sunny.12 mph79%29.95 "HgN/A
11:00 AM79 °FPartly sunny.13 mph79%29.98 "HgN/A
10:00 AM77 °FMostly cloudy.13 mph83%30.01 "HgN/A
9:00 AM77 °FPartly sunny.10 mph83%30.01 "HgN/A
8:00 AM77 °FPartly sunny.13 mph83%30.01 "HgN/A
7:00 AM75 °FMostly cloudy.12 mph83%29.98 "HgN/A
Weather by CustomWeather, © 2014

See weather overviewHow to use our weather pages